sat.trackr.live / text

‹ back to catalog

STARLINK-30482

NORAD 57907 · 2023-146S

PAYLOAD ACTIVE UNKNOWN

§ Identity

Operator
Country
US
Launch date
2023-09-20
Launch site
AFETR
Launch vehicle
Mass (kg)
RCS (m²)

Purposes: comms

External: N2YO · Heavens-Above · Gunter

§ Orbital elements

Epoch: 2026-05-24T16:26:58.648992Z

Period
94.27 min
Inclination
43.0059°
Eccentricity
0.0002312
Mean motion
15.27584791 rev/d
Perigee alt
481.4 km
Apogee alt
484.6 km
Semi-major
6,861.2 km
B*
9.3825e-5
RAAN
245.4641°
Arg perigee
286.4208°
Mean anomaly
73.6389°
Rev number
14,762

§ Raw data

STARLINK-304821 57907U 23146S   26144.68540103  .00002321  00000+0  93825-4 0  99962 57907  43.0059 245.4641 0002312 286.4208  73.6389 15.27584791147620

JSON: /api/v1/satellites/57907 · /tle

For live sub-satellite position, see the globe view (requires WebGL).

§ Visibility from observer

Set your observer location to see the next 7 days of passes ≥ 10°. The values pass through the URL so the page stays shareable.

No JS? Fill the form by hand. The geolocation button needs JavaScript.